Вернуться в каталог

NOAA 16 DEB

АктивенPO
NORAD 42427·DEBRIS·🇺🇸 United States

Запущен Sep 21, 2000 с Vandenberg Space Force Base

Loading…

Ближайшие Пролёты (ближайшие 24 часа)

TLE

УстаревающийSource: Space-Track

Эпоха: Sep 7, 2026, 13:29 UTC

1 42427U 00055TX  26250.56227428  .00028043  00000-0  24382-2 0  9998
2 42427  98.8855 175.6573 0022165 293.2976  66.5909 14.96749923530212

Отслеживайте NOAA 16 DEB в реальном времени с AllMySat

Download on the App Store